Location: Potomac
(46.8816°N, 113.5795°W)
Time: 03:05:23
(UTC+00:00)

YUBILEINY - Visible Passes

Search period start: 29 June 2022 00:00
Search period end: 09 July 2022 00:00
Orbit: 1479 x 1507 km, 82.5° (Epoch: 28 June)

Date Brightness Start Highest point End Pass type
(mag) Time Alt. Az. Time Alt. Az. Time Alt. Az.
29 Jun ? 09:28:38 10° NNE 09:32:27 13° NE 09:36:14 10° ENE visible
30 Jun ? 10:33:53 10° N 10:41:37 32° ENE 10:49:15 10° SE visible
01 Jul ? 09:45:03 10° NNE 09:51:02 19° NE 09:56:58 10° E visible
02 Jul ? 08:57:48 10° NNE 08:59:59 11° NE 09:02:08 10° ENE visible
02 Jul ? 10:51:14 10° N 10:59:40 46° ENE 11:07:59 10° SE visible
03 Jul ? 10:02:04 10° N 10:09:24 28° ENE 10:16:37 10° ESE visible
04 Jul ? 09:13:28 10° NNE 09:18:40 17° NE 09:23:49 10° E visible
05 Jul ? 10:19:21 10° N 10:27:32 40° ENE 10:35:35 10° SE visible
06 Jul ? 09:30:18 10° N 09:37:07 24° ENE 09:43:51 10° ESE visible
07 Jul ? 08:42:02 10° NNE 08:46:15 14° NE 08:50:27 10° ENE visible
07 Jul ? 10:36:47 10° N 10:45:27 57° ENE 10:54:00 10° SSE visible
08 Jul ? 09:47:29 10° N 09:55:20 34° ENE 10:03:05 10° SE visible
